Weather History for Rome, OR

Change the Weather History Date:

Tuesday, May 21, 2013

  Actual Average Record
Temperature  
Mean Temperature 60 °F 55 °F  
Max Temperature 78 °F 71 °F 90 °F (1980)
Min Temperature 42 °F 39 °F 33 °F (1974)
Degree Days  
Heating Degree Days 5 10  
Month to date heating degree days 161 270  
Since 1 July heating degree days 6096 6364  
Cooling Degree Days 0 0  
Month to date cooling degree days 22 0  
Year to date cooling degree days 22 0  
Growing Degree Days 12 (Base 50)    
Moisture  
Dew Point 22 °F    
Average Humidity 22    
Maximum Humidity 38    
Minimum Humidity 6    
Precipitation  
Precipitation 0.00 in 0.04 in 0.79 in (1998)
Month to date precipitation 0.31 0.95  
Year to date precipitation 1.91 4.32  
Sea Level Pressure  
Sea Level Pressure 29.67 in    
Wind  
Wind Speed 17 mph (South)    
Max Wind Speed 37 mph    
Max Gust Speed 52 mph    
T = Trace of Precipitation, MM = Missing Value Source: NWS Daily Summary

Daily Weather History Graph

Daily Weather History Graph

Search for Another Location

Airport:

Trip Planner

Search our weather history database for the weather conditions in past years. The results will help you decide how hot, cold, wet, or windy it might be!

Date:

Astronomy

May. 21, 2013 Rise Set
Actual Time 5:23 AM PDT 8:13 PM PDT
Civil Twilight 4:50 AM PDT 8:46 PM PDT
Nautical Twilight 4:08 AM PDT 9:28 PM PDT
Astronomical Twilight 3:20 AM PDT 10:16 PM PDT
Moon 4:27 PM PDT (5/21) 2:59 AM PDT (5/21)
Length of Visible Light 15h 55m
Length of Day
14h 49m
Waxing Gibbous, 85% of the Moon is Illuminated
May 21
Waxing Gibbous
May 24
Full
May 31
Last Quarter
Jun 8
New
Jun 16
First Quarter

Hourly Weather History & Observations

Time (PDT) Temp. Windchill Dew Point Humidity Pressure Visibility Wind Dir Wind Speed Gust Speed Precip Events Conditions
12:52 AM 57.0 °F - 24.1 °F 28% 29.86 in - SE 16.1 mph - N/A   Unknown
1:52 AM 57.0 °F - 25.0 °F 29% 29.83 in - SE 15.0 mph - N/A   Unknown
2:52 AM 59.0 °F - 23.0 °F 25% 29.80 in - SSE 15.0 mph 20.7 mph N/A   Unknown
3:52 AM 55.9 °F - 24.1 °F 29% 29.78 in - South 11.5 mph 16.1 mph N/A   Unknown
4:52 AM 55.9 °F - 24.1 °F 29% 29.76 in - SE 8.1 mph - N/A   Unknown
5:52 AM 51.1 °F - 27.0 °F 39% 29.77 in - South 6.9 mph - N/A   Unknown
6:52 AM 59.0 °F - 25.0 °F 27% 29.72 in - SE 6.9 mph - N/A   Unknown
7:52 AM 62.1 °F - 24.1 °F 23% 29.71 in - SE 13.8 mph - N/A   Unknown
8:52 AM 66.0 °F - 21.9 °F 19% 29.70 in - SSE 13.8 mph - N/A   Unknown
9:52 AM 71.1 °F - 23.0 °F 16% 29.65 in - SSE 21.9 mph 27.6 mph N/A   Unknown
10:52 AM 75.0 °F - 28.0 °F 18% 29.61 in - South 15.0 mph 25.3 mph N/A   Unknown
11:52 AM 77.0 °F - 26.1 °F 15% 29.59 in - SSW 20.7 mph 39.1 mph N/A   Unknown
12:52 PM 77.0 °F - 24.1 °F 14% 29.56 in - SW 31.1 mph 43.7 mph N/A   Unknown
1:52 PM 73.9 °F - 21.9 °F 14% 29.55 in - SSW 28.8 mph 48.3 mph N/A   Unknown
2:52 PM 78.1 °F - 24.1 °F 14% 29.53 in - SW 28.8 mph 40.3 mph N/A   Unknown
3:52 PM 75.0 °F - 10.0 °F 8% 29.54 in - WSW 31.1 mph 42.6 mph N/A   Unknown
4:52 PM 73.0 °F - 3.0 °F 6% 29.55 in - WSW 23.0 mph 42.6 mph N/A   Unknown
5:52 PM 71.1 °F - 12.0 °F 10% 29.57 in - WSW 21.9 mph 32.2 mph N/A   Unknown
6:52 PM 66.9 °F - 15.1 °F 14% 29.58 in - West 23.0 mph 31.1 mph N/A   Unknown
7:52 PM 62.1 °F - 19.9 °F 20% 29.60 in - West 19.6 mph 26.5 mph N/A   Unknown
8:52 PM 51.1 °F - 27.0 °F 39% 29.67 in - West 15.0 mph 21.9 mph N/A   Unknown
9:52 PM 48.0 °F - - N/A% 29.71 in - West 5.8 mph - N/A   Unknown
10:52 PM 46.0 °F 43.9 °F - N/A% 29.71 in - NNE 4.6 mph - N/A   Unknown
11:52 PM 44.1 °F 39.5 °F - N/A% 29.73 in - East 8.1 mph - N/A   Unknown